Theta_e
314 318 319 319 317 317 317 317 318 317 316 315 315 315 315 314 313 314 316 318 320 320 320 319 318 317 317 317 316 316 319 321 316 323 337 343 346 349 349 348 347 351 349 349
317 318 318 315 315 316 317 318 319 316 315 315 315 315 314 314 314 314 315 320 320 320 321 319 317 316 315 315 314 313 313 314 323 318 332 339 342 344 346 345 349 352 351 350
317 318 315 316 317 318 318 318 317 316 316 315 314 313 313 314 314 316 319 320 320 320 319 318 316 315 314 313 313 312 313 311 315 324 322 338 344 345 346 346 347 349 349 349
316 315 316 318 317 317 319 315 315 316 317 315 313 312 314 314 317 317 319 320 320 320 318 317 316 315 314 312 311 311 311 311 311 315 325 329 337 339 340 342 343 345 346 347
318 317 318 318 317 316 318 315 316 316 316 314 314 315 315 314 316 317 319 320 321 319 318 317 315 313 312 312 311 310 310 310 312 312 317 326 331 335 337 340 343 346 346 347
317 316 316 316 315 314 314 316 317 312 314 317 316 319 317 315 315 317 320 321 320 319 317 316 314 313 312 312 311 310 310 311 311 312 314 319 326 330 336 339 341 342 343 345
318 318 316 316 318 315 317 318 320 317 319 314 317 316 315 315 315 316 317 319 320 319 316 315 314 313 312 311 310 310 310 310 310 311 312 315 319 327 332 335 338 341 342 343
320 316 318 317 317 317 317 317 320 321 316 315 314 316 316 318 317 317 318 319 319 318 316 315 314 313 312 311 310 309 309 309 310 311 311 313 318 324 329 333 334 337 339 340
321 319 317 316 316 316 316 318 315 322 317 320 316 316 317 316 316 317 319 315 316 317 316 314 313 313 311 311 310 308 308 309 310 310 311 313 316 321 328 332 336 335 337 339
318 321 316 316 316 315 316 316 321 321 323 321 315 316 316 315 316 315 315 315 316 316 314 313 314 312 311 310 308 307 308 308 309 310 310 312 313 318 326 332 337 337 337 338
317 320 316 316 315 315 315 317 317 318 321 323 319 316 315 315 315 316 316 315 316 315 314 314 312 311 309 308 308 308 308 308 308 309 310 311 313 315 324 332 337 337 339 339
316 319 319 316 315 314 315 317 318 324 319 320 321 321 315 316 316 316 316 316 315 314 314 313 311 309 308 307 307 307 307 307 308 309 309 310 311 313 320 329 335 337 340 339
316 321 321 315 313 314 316 316 316 318 318 321 323 320 316 316 317 316 316 315 314 314 313 311 309 308 307 307 307 307 307 307 307 308 309 309 311 312 316 327 330 337 337 336
317 319 319 317 315 315 317 316 315 318 321 321 321 319 317 317 318 317 315 314 313 312 311 309 308 308 307 306 306 306 306 306 306 307 308 309 310 312 314 324 328 332 332 330
319 319 316 316 315 315 316 316 317 318 318 320 319 318 317 317 316 315 313 312 312 311 310 308 307 307 306 306 306 305 304 305 306 307 308 308 309 311 313 324 327 329 326 321
313 316 315 316 316 316 318 318 317 317 318 318 317 317 315 315 314 314 313 311 310 309 308 307 307 306 305 305 304 303 303 304 305 306 307 308 309 311 313 323 326 327 329 327
313 315 317 318 316 315 315 315 315 314 315 317 317 316 315 314 313 312 310 309 309 308 307 306 305 304 303 303 303 302 302 303 304 306 307 308 309 310 314 326 327 327 328 331
314 315 316 318 314 313 311 310 312 314 314 314 313 314 313 312 312 310 308 308 307 306 305 303 303 302 302 301 301 301 302 303 304 305 308 308 309 310 314 323 324 325 325 327
312 313 312 314 313 310 309 315 314 313 313 313 313 312 312 312 311 309 307 307 306 304 303 302 302 301 300 300 300 301 302 303 304 305 308 309 309 310 314 323 321 320 321 322
311 310 312 311 312 311 310 313 310 311 315 312 311 311 311 311 311 311 307 305 304 302 302 302 301 301 300 300 300 301 302 303 305 306 308 308 309 310 313 321 318 316 316 314
310 311 312 311 312 311 310 310 309 315 316 311 310 309 310 310 309 308 305 303 302 302 302 301 300 300 299 299 300 301 302 304 305 307 309 309 309 310 313 318 315 312 309 309
311 313 312 313 314 313 309 310 312 313 308 308 309 309 309 307 306 304 303 303 302 302 301 300 300 300 299 299 300 301 302 304 307 309 310 309 310 311 317 315 310 308 306 304
312 311 314 313 313 313 312 311 310 309 311 310 306 306 305 305 304 303 302 302 301 300 300 299 298 298 298 299 300 301 302 306 307 310 310 310 310 314 314 312 308 306 304 304
309 308 312 311 311 310 310 309 309 311 310 307 305 305 304 303 302 302 301 300 300 299 299 298 298 298 298 299 300 301 304 307 307 309 310 310 311 312 311 309 308 306 305 304
310 310 312 311 310 310 310 309 310 309 306 304 303 303 302 302 300 299 299 299 299 299 298 297 297 298 298 299 300 303 305 306 307 308 309 310 312 310 308 308 308 307 305 304
311 311 310 311 309 310 310 310 309 306 304 302 302 302 301 300 299 298 298 298 298 298 297 298 298 299 300 301 303 305 306 306 307 308 310 310 307 306 305 304 303 306 305 303
Wind_Speed
3 2 2 0 3 3 5 5 8 8 6 10 15 17 19 19 17 16 10 4 3 3 5 8 11 14 17 22 26 29 29 34 18 13 18 20 24 26 26 25 28 26 24 24
2 6 4 4 4 5 5 6 10 7 7 11 18 23 18 14 12 6 5 3 2 1 4 8 12 14 17 18 21 28 30 34 28 13 17 18 19 24 27 24 24 26 23 22
6 5 2 4 4 5 4 6 3 8 13 13 12 16 2 2 6 4 3 2 2 2 4 6 9 12 14 19 21 23 25 31 29 28 13 16 17 15 14 20 21 28 27 25
5 3 2 3 3 2 7 3 6 11 13 12 4 9 3 4 7 7 3 4 3 2 1 4 9 13 14 16 19 23 24 25 26 27 18 13 19 21 23 23 26 28 31 30
2 4 4 4 1 3 4 5 9 12 13 5 5 6 0 3 8 7 6 5 4 2 4 6 8 12 13 16 18 22 25 28 26 29 23 16 15 21 22 22 22 22 23 29
2 3 1 2 2 1 3 6 11 1 2 5 4 2 5 4 4 5 4 5 5 5 5 5 8 14 17 20 22 27 28 24 26 26 25 18 16 16 21 23 23 22 22 21
8 2 0 0 3 3 3 8 5 3 2 5 6 7 11 12 12 14 12 10 7 7 6 7 9 14 19 23 24 26 28 30 29 29 26 23 20 18 18 23 24 23 20 20
3 4 3 0 11 9 3 2 2 6 5 13 12 9 4 4 4 4 5 5 8 10 8 8 10 14 17 19 21 26 29 29 28 24 24 24 23 18 18 17 22 24 24 23
4 5 5 14 5 3 4 5 2 4 4 5 5 6 10 15 12 7 10 8 8 9 10 10 14 16 18 21 23 24 23 25 25 25 23 21 22 21 20 18 18 23 24 22
2 9 7 3 2 3 6 7 3 2 4 7 10 13 12 9 9 10 13 14 5 11 8 9 13 18 21 24 24 25 23 25 24 24 23 23 24 22 20 19 19 21 22 24
3 3 3 3 7 12 5 4 4 4 5 5 11 9 4 10 13 14 14 9 13 10 9 12 15 22 24 24 26 25 25 25 24 22 22 23 24 24 19 18 19 19 19 22
0 3 9 18 21 10 10 14 14 6 8 7 12 18 13 14 10 10 14 17 11 10 13 14 19 24 24 25 26 25 25 25 24 24 24 23 23 23 20 17 17 18 17 19
2 2 6 7 3 3 3 4 12 11 6 17 15 13 4 9 16 17 12 11 13 16 19 18 18 19 23 24 24 25 24 25 24 23 24 24 21 20 20 16 13 17 15 17
5 7 11 11 18 18 22 21 20 15 7 17 20 27 24 22 21 17 11 13 16 19 20 21 19 18 25 25 25 25 27 27 25 22 24 24 20 18 20 14 11 8 14 15
2 8 12 17 21 22 22 24 24 19 23 16 26 25 24 21 11 13 13 16 20 20 22 20 19 19 25 27 28 28 29 25 23 24 24 23 20 18 17 11 9 10 13 18
3 9 14 20 16 14 15 19 21 20 20 16 18 22 8 10 11 18 18 22 24 23 22 21 21 21 25 29 26 26 28 25 24 23 24 22 19 16 15 10 9 11 13 16
7 4 4 12 9 17 14 6 8 13 11 8 7 17 13 15 19 18 22 24 23 22 21 24 22 21 27 26 25 26 25 26 25 23 23 21 17 15 14 9 9 13 12 9
4 3 2 8 13 11 6 16 10 8 11 14 20 15 10 19 18 19 21 19 20 24 24 22 20 25 25 26 27 27 26 25 24 22 22 19 15 14 13 8 5 9 10 13
4 2 5 4 10 18 11 1 2 3 18 16 3 13 24 15 20 19 15 19 25 24 21 23 29 27 29 26 27 26 24 22 22 22 21 17 13 12 12 5 4 8 15 17
3 5 5 5 5 8 7 1 10 17 15 5 15 21 23 14 17 20 25 25 22 23 24 24 29 32 27 26 25 23 22 20 21 20 18 14 12 11 12 6 9 9 12 16
10 7 7 7 7 10 7 3 19 8 6 22 22 18 19 16 15 28 27 24 25 25 25 28 27 27 28 26 24 21 22 19 19 18 16 13 10 10 10 13 12 15 17 19
6 4 3 4 5 6 2 17 2 9 19 19 15 18 19 22 25 25 24 23 22 22 27 27 25 25 26 25 22 21 20 21 18 16 14 11 8 7 12 19 18 20 24 24
4 6 4 5 7 19 20 14 17 12 18 17 10 21 24 23 24 23 20 21 18 21 24 26 25 25 26 24 22 22 22 19 19 16 13 9 6 6 21 23 23 21 21 22
4 4 5 8 8 13 18 16 12 21 18 12 19 22 20 21 21 21 19 18 16 20 21 25 23 21 22 23 23 23 23 20 16 17 13 10 7 17 20 21 23 23 20 20
8 5 7 12 18 17 12 14 22 20 12 19 20 18 19 17 20 19 17 18 16 20 25 24 22 21 24 25 24 22 19 15 14 15 15 13 19 21 20 17 17 20 19 23
3 4 3 3 14 12 17 22 22 17 19 17 18 18 16 17 19 19 17 18 20 20 27 25 25 23 24 22 20 15 11 12 14 15 16 21 22 22 22 25 29 21 21 23
Wind_Direction
36 316 360 290 204 211 226 238 271 295 303 320 301 297 296 296 287 281 289 231 13 333 15 32 30 22 19 18 13 12 8 6 327 268 234 230 224 224 228 228 232 227 226 221
236 286 213 185 210 232 231 275 301 288 297 313 305 297 301 288 272 294 281 211 315 336 13 20 18 23 19 12 13 11 7 6 1 307 248 237 236 232 227 230 229 223 223 218
250 287 145 239 237 246 250 269 259 297 317 287 288 289 258 271 266 233 200 212 205 338 355 358 11 15 16 10 1 2 3 2 357 356 292 252 247 243 232 225 227 227 224 222
258 345 287 293 254 212 282 198 286 288 312 307 356 298 261 265 264 276 211 206 217 217 318 340 359 5 3 5 359 354 352 355 353 355 349 284 257 250 241 237 236 229 225 226
301 341 330 296 103 200 306 311 294 293 287 278 202 253 130 285 268 283 235 248 232 234 310 330 353 357 356 355 356 354 345 347 347 350 348 341 285 266 259 251 246 238 237 228
294 299 267 101 72 101 328 301 291 171 238 246 141 246 265 249 261 265 236 236 256 240 271 311 343 346 344 347 348 348 348 343 341 340 335 330 318 288 262 252 250 245 237 234
322 20 21 101 340 298 317 329 316 282 245 292 163 287 271 281 269 268 277 278 268 253 278 311 329 338 336 337 337 339 341 335 339 336 324 322 318 304 277 255 249 245 234 228
332 304 343 172 329 295 290 259 264 291 292 297 273 250 241 243 272 280 259 258 269 256 274 294 313 325 322 320 323 333 331 327 325 327 322 316 314 305 297 273 248 238 236 229
299 249 293 296 303 219 155 220 349 271 267 268 240 256 271 272 259 248 242 301 280 280 272 286 310 314 310 312 321 325 319 317 318 320 317 311 308 305 298 285 257 239 230 228
307 297 272 284 254 200 246 151 212 214 270 261 268 268 270 282 261 290 299 310 310 323 298 299 305 315 315 317 321 321 319 317 314 315 313 309 308 308 297 292 256 240 230 222
287 221 274 278 244 277 230 219 210 275 232 264 290 273 224 287 295 296 308 320 325 324 318 315 316 319 321 320 321 318 316 313 311 312 309 308 311 311 303 292 263 244 235 221
23 243 274 273 276 292 259 262 251 236 238 233 275 276 290 281 286 323 308 310 324 318 316 316 320 321 319 316 318 312 312 310 308 310 310 305 305 312 305 284 268 242 229 219
186 254 303 286 189 140 227 223 239 251 274 259 266 269 251 271 296 319 327 321 319 318 317 320 321 321 319 315 313 308 308 308 305 304 304 300 301 309 311 297 282 234 214 215
240 236 232 264 288 295 288 279 266 253 258 268 261 276 288 295 301 320 316 317 315 313 315 316 315 316 314 312 311 308 305 306 302 299 298 295 297 303 311 304 269 251 207 219
256 264 272 277 282 284 280 280 282 266 262 259 278 287 292 308 322 321 316 312 311 305 309 309 311 311 308 304 308 305 302 301 299 296 294 293 293 298 307 296 263 244 228 231
337 284 300 296 285 286 287 279 276 281 280 269 274 284 321 317 310 317 322 318 309 307 308 308 309 306 307 304 305 303 299 299 297 292 292 294 293 298 304 291 255 247 241 241
274 288 295 290 312 306 285 329 322 306 300 310 285 302 320 318 319 320 318 309 306 306 307 307 308 302 301 297 301 297 295 295 290 288 289 290 290 294 305 289 248 238 232 213
243 237 264 295 312 290 1 316 309 309 289 299 292 306 320 309 296 308 304 301 307 307 303 300 298 298 292 298 297 294 293 289 284 284 285 287 288 291 306 282 240 227 205 181
200 19 309 278 305 291 288 45 13 321 303 300 348 326 315 296 297 296 308 313 308 302 300 297 297 292 295 292 291 289 287 285 282 280 279 284 285 289 308 249 210 183 179 164
229 271 262 288 275 297 322 160 342 320 294 80 327 317 308 314 305 306 322 315 305 304 300 296 293 293 289 290 290 285 283 280 274 273 275 281 284 284 304 186 161 161 158 144
312 311 276 263 276 276 323 276 336 285 330 323 311 308 305 302 296 303 310 308 306 301 300 298 291 288 290 290 288 280 282 276 270 268 267 272 278 275 298 162 161 149 118 112
293 298 274 265 260 277 44 330 290 297 299 297 292 298 308 303 302 303 306 308 308 309 306 300 295 293 291 287 281 276 273 275 271 258 250 258 265 264 174 156 145 132 122 112
262 233 287 230 269 296 306 305 300 297 290 295 310 313 310 306 305 305 303 306 304 296 296 297 293 291 287 282 274 270 268 269 256 242 236 242 238 225 159 151 138 124 123 122
270 258 238 276 270 288 311 309 308 304 311 315 311 309 307 301 304 303 308 302 298 300 300 298 292 286 283 281 274 268 269 267 235 235 228 221 202 150 146 146 143 134 135 131
287 279 253 268 291 314 298 302 306 320 307 311 312 307 301 299 306 301 301 302 301 301 300 297 288 282 279 280 277 271 265 232 214 210 204 183 150 134 124 118 133 138 151 151
244 288 278 287 301 295 299 312 327 317 321 315 309 307 309 309 303 303 301 301 299 299 299 297 293 286 280 275 270 265 222 196 185 184 167 140 130 126 123 109 96 112 130 132